Wind_Speed
53 52 53 53 52 50 49 48 47 45 44 43 42 41 40 39 39 38 37 37 37 37 37 36 37 37 37 37 38 37 37 37 37 37 37 37 38 38 38 39 39 40 40
53 53 52 52 52 51 50 49 48 46 45 45 45 44 43 41 41 40 40 40 40 39 40 40 40 40 40 40 41 41 40 40 41 41 41 40 40 40 41 41 41 42 42
52 52 53 52 52 51 50 49 48 48 47 46 45 45 45 44 43 42 42 41 42 42 43 43 43 43 43 43 44 44 44 43 43 44 44 44 43 43 42 42 42 43 43
52 53 53 53 53 52 51 50 49 49 48 47 46 46 46 45 44 44 44 44 44 44 45 45 46 47 47 47 47 47 46 46 46 46 46 47 47 46 45 44 44 45 45
52 52 52 53 53 53 53 51 51 50 49 48 47 47 46 46 46 46 46 46 46 46 46 47 48 49 50 49 49 49 49 49 48 48 48 49 49 49 50 48 47 47 46
51 51 52 52 51 52 52 53 52 51 50 50 49 49 48 48 48 48 48 48 48 48 49 49 50 51 51 51 50 50 50 50 51 51 51 51 50 50 50 50 49 48 48
51 51 51 51 51 51 52 52 53 53 52 52 51 51 51 51 50 50 51 50 50 51 51 52 52 52 52 52 52 52 52 52 52 52 52 52 51 51 51 51 50 50 49
48 48 49 49 49 50 51 52 53 53 53 53 52 52 53 53 53 53 53 53 53 53 53 54 53 53 53 53 53 54 54 54 53 53 52 52 52 52 52 52 51 50 49
45 46 46 47 48 48 49 50 51 52 53 53 54 53 54 53 52 53 54 54 54 54 54 54 54 54 53 53 53 53 53 53 52 53 53 52 52 51 51 50 50 49 48
42 43 44 44 45 46 47 49 50 51 51 51 52 53 53 52 52 52 52 53 53 52 53 52 52 52 53 53 52 52 52 51 51 51 51 51 51 51 49 49 48 48 47
39 41 42 42 43 44 45 46 47 48 50 50 51 52 53 53 52 51 52 52 52 51 51 51 51 51 50 51 51 52 51 51 50 50 50 51 50 49 49 48 48 48 47
36 37 39 40 41 41 42 43 44 45 46 47 48 49 49 50 50 50 50 49 50 50 49 49 49 49 49 49 50 50 50 50 50 50 50 49 49 48 48 48 47 47 47
34 35 36 36 37 39 40 41 41 42 42 43 44 45 46 46 47 47 48 48 48 48 48 48 48 48 48 48 48 48 48 48 48 48 48 48 47 47 46 46 46 46 46
31 32 33 34 35 36 37 38 39 40 41 41 42 43 44 44 45 46 46 46 47 47 46 47 46 47 47 46 46 45 45 45 46 46 46 46 46 46 46 45 45 44 44
29 30 31 32 33 34 35 36 37 37 38 39 40 41 42 43 43 44 45 45 45 45 45 45 45 45 45 45 44 44 44 44 44 44 45 44 44 44 44 44 43 43 42
29 30 31 31 33 34 34 35 36 37 37 38 38 39 40 41 42 43 43 43 43 43 44 44 44 44 44 44 44 44 44 44 43 43 43 43 43 43 42 42 42 41 40
29 30 31 31 32 33 34 35 35 36 36 37 37 37 38 39 40 40 41 42 42 42 43 43 43 43 43 43 43 42 42 42 42 42 42 41 41 41 41 40 40 40 39
28 29 30 31 32 32 33 34 34 35 35 36 36 37 37 38 38 39 39 40 41 41 41 42 42 42 42 42 41 41 41 40 40 40 40 40 39 39 39 39 39 38 38
27 28 29 30 31 32 33 33 34 34 35 36 36 36 37 37 38 38 39 40 40 41 41 41 41 41 41 40 40 39 39 38 38 38 38 38 37 37 37 36 37 37 36
26 27 28 29 30 30 31 32 33 34 34 35 35 36 36 37 37 38 38 38 39 39 40 39 39 39 39 38 38 37 37 37 36 36 36 35 35 35 34 35 35 35 35
25 26 27 28 29 30 31 31 32 33 33 34 34 35 35 36 36 36 36 36 36 37 37 37 37 37 37 36 36 35 35 34 34 34 33 33 33 34 34 34 34 34 34
25 26 26 27 28 29 29 30 31 31 32 33 33 34 34 34 34 35 35 35 35 35 34 34 34 34 34 34 33 33 33 33 32 32 33 33 33 33 33 33 34 34 34
24 24 25 26 26 27 28 29 29 30 30 31 31 32 32 33 33 33 34 33 33 33 32 32 32 32 32 32 32 31 31 31 31 32 32 32 32 32 33 33 33 33 33
25 25 25 25 25 26 26 27 28 28 29 29 29 30 30 31 31 31 31 31 31 31 31 31 31 31 31 31 31 30 30 31 31 31 31 31 31 31 32 32 33 33 33
25 25 26 26 26 26 26 27 27 27 28 28 28 29 30 30 30 30 30 30 30 30 30 30 30 29 29 30 30 30 30 31 31 31 31 31 31 32 32 32 32 33 34
25 26 26 26 27 27 27 27 27 27 28 28 29 29 29 30 30 30 29 29 29 29 30 29 29 29 29 30 30 29 30 30 30 30 30 31 31 32 32 32 33 33 34
Wind_Direction
223 223 224 226 227 228 230 232 234 236 239 242 244 246 248 251 253 255 257 259 261 263 266 268 270 272 275 276 278 279 280 281 283 284 286 288 289 290 291 293 294 295 297
225 225 225 226 228 230 232 233 236 238 240 243 245 248 250 252 254 256 258 260 262 265 266 268 270 273 275 276 278 279 279 281 282 284 286 286 287 288 290 291 292 293 294
227 228 228 228 229 231 233 235 237 239 241 244 246 248 250 251 254 256 259 261 263 265 266 268 271 273 274 275 277 277 278 279 281 284 285 287 287 287 288 290 291 292 293
228 230 230 231 232 233 235 236 238 240 242 244 246 249 250 252 254 257 259 261 263 265 266 268 270 272 273 274 275 276 276 279 280 281 283 285 287 288 288 289 290 291 291
229 231 232 234 233 234 235 237 239 241 243 244 246 248 250 252 255 257 259 261 263 265 266 267 268 270 272 273 274 274 276 278 279 280 281 283 285 286 288 288 289 290 290
231 232 233 235 235 236 236 238 239 241 244 245 247 249 251 253 255 257 259 260 262 264 266 268 269 270 272 272 273 274 276 278 278 280 281 282 284 285 286 288 289 288 289
233 234 234 236 237 238 238 240 240 242 244 246 248 250 251 253 255 257 259 262 263 265 267 268 270 270 271 272 273 274 276 278 278 279 279 280 283 284 285 286 287 288 289
234 236 236 237 238 239 240 242 242 244 245 246 249 251 253 255 256 258 261 263 264 266 267 268 270 271 271 271 273 274 274 276 277 278 278 279 281 283 284 285 286 287 288
235 236 238 239 240 241 242 243 245 246 247 249 250 252 254 255 257 259 261 263 265 265 267 269 271 271 272 273 273 273 274 276 277 278 279 280 281 282 283 284 286 287 287
235 237 239 240 241 241 243 244 245 246 248 250 251 252 254 256 258 260 262 264 264 265 266 268 270 271 272 273 274 274 275 276 278 279 280 281 282 283 284 285 286 287 288
237 238 239 240 241 242 243 244 246 247 249 251 253 254 255 257 259 260 262 264 265 266 268 269 270 272 274 274 274 275 275 276 277 279 281 281 282 283 284 285 285 286 286
237 238 239 240 241 242 243 244 246 249 250 251 253 255 256 258 260 261 263 266 267 268 269 271 272 273 274 275 275 276 276 277 278 279 280 281 281 282 283 284 284 284 285
237 238 239 240 242 243 243 244 246 248 250 252 253 254 256 258 260 262 263 266 268 269 270 271 272 274 274 275 276 277 278 279 279 279 280 280 281 282 282 282 282 283 284
237 238 239 240 241 243 244 245 246 248 250 252 253 255 256 258 260 262 264 266 267 268 270 272 273 274 275 276 276 277 278 278 278 279 280 279 279 280 280 281 282 282 283
237 238 240 240 242 243 245 245 246 248 250 252 254 256 258 259 261 262 264 266 267 269 271 272 273 274 275 275 276 276 277 277 278 279 279 279 279 279 280 281 281 282 283
239 239 241 243 244 245 246 247 248 250 251 253 255 257 258 260 262 264 265 267 268 269 270 272 273 274 274 274 275 275 276 277 278 279 279 279 279 279 280 280 281 282 283
239 241 242 244 246 246 248 249 250 251 253 255 256 258 260 261 263 265 266 268 269 271 271 272 273 274 274 274 274 275 276 277 278 279 279 279 279 279 279 280 281 281 283
241 242 243 244 246 247 248 250 251 252 254 256 258 260 262 263 265 266 268 269 270 271 272 272 273 273 274 274 275 276 277 277 277 278 278 278 279 279 279 280 280 281 282
243 243 243 245 246 247 248 250 252 253 255 257 258 260 262 264 266 267 269 270 271 271 272 272 272 273 273 274 274 275 276 275 276 277 278 278 279 279 280 280 281 282 282
245 245 245 245 247 249 249 251 253 255 256 257 259 261 262 264 265 267 269 270 271 271 271 271 272 273 273 273 273 274 274 275 276 277 277 278 279 279 280 281 281 282 283
249 249 248 249 250 251 252 254 255 256 256 258 259 261 263 264 265 267 269 270 271 271 271 271 271 271 272 272 272 273 273 275 276 277 278 279 279 279 280 281 282 282 282
252 251 251 251 252 253 254 255 256 257 257 259 260 262 263 265 266 268 269 270 271 271 271 270 270 271 271 272 272 272 273 274 275 277 278 279 279 280 280 280 282 282 282
253 253 252 253 254 255 256 256 257 257 258 259 261 262 264 265 267 269 269 270 270 270 270 271 271 271 271 272 272 272 273 274 276 277 279 279 280 280 280 281 281 281 282
255 255 255 255 256 257 258 258 259 259 260 260 262 263 264 266 267 267 269 269 270 270 270 271 272 271 272 272 272 273 274 276 277 279 280 279 280 280 280 281 282 282 283
257 257 255 255 256 258 259 260 261 261 262 263 264 266 266 267 267 267 269 270 270 270 271 271 272 272 271 272 273 274 275 277 278 279 280 279 279 280 281 281 282 284 285
257 258 258 257 257 258 259 260 261 261 262 263 264 266 266 266 267 267 269 270 270 270 270 270 271 271 272 273 274 275 276 277 278 279 279 279 279 280 281 282 284 285 285
Height
5751 5757 5763 5770 5777 5782 5788 5793 5797 5802 5805 5809 5812 5815 5818 5821 5823 5825 5827 5829 5831 5833 5834 5835 5836 5837 5837 5838 5838 5838 5837 5837 5836 5836 5835 5835 5833 5832 5830 5828 5826 5823 5821
5744 5750 5756 5763 5769 5775 5781 5785 5790 5794 5798 5802 5805 5809 5811 5813 5816 5818 5820 5822 5823 5825 5826 5827 5828 5829 5829 5830 5830 5830 5829 5829 5828 5827 5827 5827 5827 5824 5822 5820 5818 5816 5813
5737 5743 5749 5756 5762 5768 5773 5778 5783 5787 5790 5794 5798 5801 5803 5805 5808 5810 5812 5814 5815 5817 5818 5819 5820 5821 5821 5821 5821 5821 5821 5820 5820 5818 5817 5817 5817 5815 5814 5812 5810 5807 5805
5729 5735 5741 5748 5754 5760 5765 5770 5774 5778 5782 5786 5789 5792 5795 5797 5800 5802 5804 5805 5806 5808 5809 5810 5811 5812 5812 5812 5812 5812 5812 5811 5810 5809 5808 5807 5806 5804 5804 5803 5800 5798 5795
5722 5728 5734 5740 5746 5751 5756 5761 5765 5769 5773 5777 5780 5784 5787 5789 5791 5793 5795 5797 5798 5799 5800 5801 5801 5802 5802 5803 5803 5802 5802 5801 5801 5800 5799 5797 5795 5794 5792 5792 5791 5788 5786
5713 5719 5725 5731 5736 5742 5747 5752 5756 5761 5764 5768 5771 5774 5777 5779 5781 5784 5785 5787 5788 5790 5790 5791 5791 5792 5792 5792 5792 5792 5792 5791 5790 5789 5788 5787 5786 5784 5782 5780 5779 5777 5776
5706 5711 5717 5722 5728 5733 5738 5742 5747 5751 5755 5758 5761 5764 5767 5769 5771 5773 5775 5777 5778 5779 5780 5781 5781 5781 5782 5782 5781 5781 5781 5780 5779 5778 5777 5776 5774 5773 5771 5769 5767 5766 5764
5698 5703 5708 5714 5719 5724 5728 5733 5737 5741 5745 5748 5751 5754 5756 5759 5761 5763 5765 5766 5767 5768 5769 5769 5770 5770 5770 5770 5770 5770 5770 5769 5768 5767 5766 5764 5763 5761 5759 5757 5756 5754 5753
5690 5694 5700 5705 5710 5715 5719 5723 5727 5731 5734 5738 5741 5743 5746 5748 5750 5752 5753 5755 5756 5757 5758 5758 5758 5759 5758 5758 5758 5758 5758 5757 5756 5755 5754 5753 5751 5749 5748 5746 5744 5742 5741
5682 5686 5691 5696 5700 5705 5709 5713 5717 5721 5724 5727 5730 5733 5735 5737 5739 5741 5742 5743 5744 5745 5746 5746 5747 5747 5747 5747 5747 5747 5746 5745 5745 5743 5742 5741 5740 5738 5736 5734 5732 5730 5728
5673 5678 5682 5687 5691 5695 5699 5703 5707 5710 5714 5717 5719 5722 5724 5726 5728 5729 5731 5732 5733 5733 5734 5734 5735 5735 5735 5735 5735 5734 5734 5733 5732 5731 5730 5729 5727 5726 5724 5722 5721 5719 5717
5665 5669 5674 5678 5682 5686 5690 5693 5697 5700 5703 5706 5709 5711 5713 5715 5717 5719 5720 5721 5721 5722 5722 5723 5723 5723 5723 5723 5722 5722 5721 5720 5720 5719 5718 5717 5715 5714 5712 5710 5709 5707 5705
5657 5662 5666 5670 5674 5677 5681 5684 5688 5691 5694 5696 5698 5700 5703 5704 5706 5707 5709 5710 5710 5711 5711 5711 5711 5711 5711 5711 5710 5710 5709 5708 5707 5706 5705 5704 5703 5702 5700 5698 5697 5695 5693
5650 5654 5658 5661 5665 5668 5672 5675 5678 5681 5684 5686 5688 5690 5692 5694 5696 5697 5698 5699 5699 5699 5699 5700 5700 5700 5699 5699 5698 5698 5697 5696 5695 5694 5693 5692 5691 5690 5688 5687 5685 5684 5682
5643 5647 5650 5654 5657 5660 5663 5666 5669 5672 5674 5677 5679 5681 5682 5684 5685 5686 5687 5687 5688 5688 5688 5688 5688 5688 5687 5687 5686 5686 5685 5684 5683 5682 5681 5680 5679 5678 5677 5675 5674 5672 5671
5637 5640 5643 5646 5649 5652 5655 5658 5660 5663 5665 5667 5669 5671 5672 5673 5674 5675 5676 5676 5676 5676 5677 5677 5676 5676 5676 5675 5675 5674 5674 5673 5672 5671 5670 5668 5667 5666 5665 5664 5663 5661 5660
5630 5633 5635 5638 5641 5644 5646 5649 5651 5653 5655 5657 5659 5660 5662 5663 5664 5664 5665 5665 5665 5665 5665 5665 5665 5665 5664 5664 5663 5663 5662 5661 5660 5659 5658 5657 5656 5655 5654 5653 5652 5651 5649
5623 5625 5628 5631 5633 5635 5638 5640 5642 5644 5646 5648 5649 5650 5652 5653 5653 5654 5654 5654 5654 5654 5654 5654 5654 5653 5653 5652 5652 5651 5651 5650 5649 5648 5647 5646 5645 5644 5643 5642 5641 5640 5639
5616 5618 5620 5623 5625 5627 5629 5631 5633 5635 5637 5638 5640 5641 5642 5643 5643 5644 5644 5644 5644 5643 5643 5643 5643 5642 5642 5641 5641 5640 5640 5639 5638 5638 5637 5636 5635 5634 5633 5632 5631 5630 5628
5609 5611 5613 5615 5617 5619 5620 5622 5624 5626 5627 5629 5630 5631 5632 5632 5633 5633 5633 5633 5633 5633 5633 5632 5632 5632 5631 5630 5630 5630 5629 5629 5628 5627 5626 5626 5625 5624 5623 5622 5621 5620 5619
5602 5604 5605 5607 5609 5610 5612 5614 5615 5617 5618 5619 5620 5621 5622 5622 5623 5623 5623 5623 5623 5622 5622 5622 5621 5621 5621 5620 5620 5620 5619 5619 5618 5617 5617 5616 5615 5614 5613 5612 5611 5610 5609
5595 5597 5598 5599 5601 5602 5604 5605 5606 5608 5609 5610 5611 5611 5612 5613 5613 5613 5613 5613 5613 5613 5612 5612 5611 5611 5611 5610 5610 5610 5609 5609 5609 5608 5607 5606 5605 5605 5604 5603 5602 5600 5599
5588 5589 5591 5592 5593 5594 5595 5597 5598 5599 5600 5601 5601 5602 5603 5603 5603 5604 5604 5604 5603 5603 5603 5602 5602 5602 5601 5601 5601 5600 5600 5600 5599 5598 5598 5597 5596 5595 5594 5593 5592 5591 5589
5581 5582 5583 5585 5586 5587 5588 5588 5589 5590 5591 5592 5593 5593 5594 5594 5594 5594 5594 5594 5594 5594 5594 5593 5593 5592 5592 5592 5591 5591 5591 5591 5590 5589 5588 5588 5587 5586 5585 5584 5582 5581 5580
5574 5575 5576 5577 5578 5579 5580 5581 5581 5582 5583 5583 5584 5585 5585 5585 5585 5585 5585 5585 5585 5585 5585 5584 5584 5583 5583 5583 5583 5582 5582 5581 5581 5580 5579 5578 5578 5577 5575 5574 5573 5571 5570
5567 5568 5568 5569 5570 5571 5572 5573 5573 5574 5575 5575 5575 5576 5576 5576 5577 5577 5577 5576 5576 5576 5576 5575 5575 5575 5575 5574 5574 5573 5573 5572 5572 5571 5570 5569 5568 5567 5566 5564 5563 5561 5559